FENGYUN 1C DEB, 31997

Orbit data source: Space-Track

FENGYUN 1C DEB, 31997 is space debris in SSO originally from a launch on Mon, 10 May 1999 UTC launched from the Taiyaun Space Center, China (TSC). Fengyun 1C debris stems from the Chinese weather satellite Fengyun-1C, which was intentionally destroyed by a Chinese anti-satellite missile in 2007. This event dramatically increased the amount of space debris, with thousands of trackable fragments posing hazards to satellites and human spaceflight. The Fengyun 1C debris cloud has become a focal point in discussions about space sustainability and the need for international regulations to prevent the creation of new debris.

Loading next visibility...
Identifier
31997, 1999-025CQA
Orbit
SSO
Country
Flag of CNCN / PRC
Related business
Manufacturer
Unknown
Mission
Spacecraft
Bus & Motor
Unknown
Mass
Unknown
Launch date (UTC)
1999-05-10 (27 years ago)
Launch vehicle
Unknown
Launch site
Taiyaun Space Center, China (TSC)
Object type
Payload
Rocket body
Debris
Shape & HBR
Unknown shape, 0.1 m
Radar Cross Section
Small (<0.1 m²)

Expand to show TLE details & history
Last TLE update: 8 hours ago

TLE from 8 hours ago
0 FENGYUN 1C DEB
1 31997U 99025CQA 26238.53782223  .00000678  00000-0  74097-3 0  9998
2 31997 102.5073 358.3399 0285008  54.0011 308.7185 13.61599671651779
Epoch: 2026-08-26T12:54Z
TLE epoch observation values (Epoch: 2026-08-26T12:54:27.840Z)
Latitude
-0.0001°
Longitude
-170.06547°
Altitude
904.253 km
Speed
7.464 km/s
True Right ascension
23h 53m 21s
True Declination
0° 00' 00"
Sunlit
Object was in full shadow at epoch
Visualization orbit readout
Latitude
Unknown
Longitude
Unknown
Altitude
Unknown
Speed
Unknown
Apparent Right ascension
Unknown
Apparent Declination
Unknown
Sunlit
N/A
Visualization observer readout
Local Sidereal Time
12:01:41
Azimuth
Unknown
Elevation
Unknown
Doppler factor
Unknown
Orbital elements
Apogee altitude
1,238.394 km
Perigee altitude
816.27 km
Semi-major axis
7,405.469 km
Eccentricity
0.0285
Inclination
102.5073°
RAAN
358.3399°
Arg. of periapsis
54.0011°
True anomaly
306.11319°
Mean anomaly
308.7185°
Eccentric anomaly
307.42161°
Mean motion
3.40576 °/min
Orbital period
105.7 mins
BSTAR
0.00074097
Loading maneuver chart data...
Computing Atmospheric mass density...

Documentation

Showing up to 5 results
|